Location: Winthrop
(48.4780°N, 120.1850°W)
Time: 18:30:06
(UTC-07:00)

Vanguard 1 Rocket - Pass Details

Date: 05 December 2023
Orbit: 649 x 4220 km, 34.3° (Epoch: 11 September)

Event Time Altitude Azimuth Distance (km) Brightness Sun altitude
Rises 00:57:00 0° 175° (S) 8,449 - -60.8°
Exits shadow 01:05:41 - 159° (SSE) 7,637 11.9 -60.0°
Reaches altitude 10° 01:10:53 10° 148° (SSE) 7,207 11.8 -59.4°
Maximum altitude 01:16:18 11° 135° (SE) 6,853 11.7 -58.9°
Drops below altitude 10° 01:21:19 10° 121° (ESE) 6,651 11.8 -58.3°
Sets 01:31:42 0° 93° (E) 6,790 12.2 -57.1°
